Погода в Витебске

Поиск расширенной информации на нашем сайте:

Полезная информация:

Новости сайта



14.11.2019
Обновлён Долгосрочный прогноз погоды по России и другим странам хСССР на ноябрь-декабрь 2019 года.
Опубликованы прогностические карты: Предварительный прогноз на декабрь 2019 года, Предварительный прогноз на январь 2020 года, Предварительная схема синоптических процессов на декабрь 2019 г..

11.11.2019
Обновлены Долгосрочный прогноз погоды по России и другим странам хСССР на ноябрь-декабрь 2019 года и Предварительный прогноз на зиму 2019/2020 годов

04.11.2019
Опубликован Долгосрочный прогноз погоды по России и другим странам хСССР на ноябрь 2019 года
Сравнение прогнозируемой аномалии приземной температуры воздуха на ноябрь 2019 года по разным моделям
Предварительный прогноз на зиму 2019/2020 года




Погода в Витебске - сегодня

Время (UTC), дата Ветер
(°,м/с) 
Видим.   Явления Облачность Т
(°С)
Тd
(°С)
f(%) Тe
(°С)
Pmin
(гПа)
dP
(гПа)
Po
(мм)
O2
(г/м3)
Тmin Tmax R s Состояние
почвы
00 18.11.19 160 (Ю) 3500 м  в посл. час морось  10/10 100 м 
[St]
+7.1 +6.9 99 +7  1026.7  -0.2  754  295           
03 18.11.19 тихо ()   9000 м  дымка  10/10 150 м 
[St]
+6.6 +6.1 97 +7  1026  -0.7  753  295      0.0     
06 18.11.19 160 (Ю) 6000 м  дымка  10/10 150 м 
[St]
+5.9 +5.4 97 +7  1026  -0.1  753  296  +5.9    0.0     
09 18.11.19 160 (Ю) 7000 м  дымка  10/10 150 м 
[St]
+5.9 +5.1 95 +6  1026.4  0.4  753  296           
12 18.11.19 150 (ЮВ) 8000 м  дымка  10/10 180 м 
[St]
+5.8 +5 95 +7  1025.7  -0.7  753  296           
15 18.11.19 170 (Ю) 9000 м  дымка  10/10 210 м 
[St]
+5.6 +4.7 94 +6  1025.7  753  297           
18 18.11.19 150 (ЮВ) 9000 м  дымка  10/10 210 м 
[St]
+5.5 +4.5 93 +4  1025.3  -0.4  753  297    +6.3       
21 18.11.19 160 (Ю) 9000 м  дымка  10/10 210 м 
[St]
+5 +4.5 97 +5  1025.6  0.3  753  297           
00 19.11.19 170 (Ю) 1900 м  слаб. морось  10/10 100 м 
[St]
+3 +2.7 98 +2  1026.5  0.7  753  300           
03 19.11.19 180 (Ю) 7000 м  слаб. морось  10/10 120 м 
[St]
+0.9 +0.4 96 1027.3  0.6  754  303      0.0     
06 19.11.19 190 (Ю) 8000 м  слаб. морось  10/10 180 м 
[St]
+0.3 -0.5 94 1028.5  1.1  755  304  +0.2    0.0     
09 19.11.19 160 (Ю) 26000 м  {снег, морось}  10/10 210 м 
[St]
+1.3 +0.2 92 +2  1028.6  0.2  755  303           
12 19.11.19 тихо ()   7000 м  слаб. морось{снег}  10/10 180 м 
[St]
+2 +1.3 95 +2  1028.8  0.3  755  302           
15 19.11.19 160 (Ю) 4000 м  слаб. морось  10/10 150 м 
[St]
+2.2 +1.8 97 +3  1029.6  0.8  756  302      0.0     
18 19.11.19 тихо ()   9000 м  дымка{морось}  10/10 120 м 
[St]
+2.5 +2.2 98 +3  1030  0.4  756  301    +2.5  0.0     
21 19.11.19 тихо ()   3700 м  слаб. морось  10/10 60 м 
[St]
+2.9 +2.8 99 +3  1030.6  0.6  756  301           
00 20.11.19 тихо ()   8000 м  дымка{морось}  10/10 100 м 
[St]
+3.2 +2.9 98 +3  1031.2  0.6  757  301           
03 20.11.19 100 (В) 9000 м  дымка  10/10 100 м 
[St]
+3.1 +2.8 98 +4  1032  0.8  757  301      0.0     
06 20.11.19 140 (ЮВ) 9000 м  в посл. час морось  10/10 180 м 
[St]
+2.5 +2 96 +2  1033.3  1.2  758  302  +2.5    0.0     
09 20.11.19 130 (ЮВ) 35000 м  {морось}  10/10 210 м 
[St]
+2.2 +1 92 +2  1034.6  1.3  759  303           
12 20.11.19 130 (ЮВ) 35000 м  {морось}  9/9 570 м 
[Sc]
+1.2 -1.9 80 +1  1035.8  760  305           
15 20.11.19 160 (Ю) 35000 м    10/10 400 м 
[St]
+1.4 -0.8 85 +1  1036.8  761  305      0.0     
18 20.11.19 170 (Ю) 22000 м    10/10 330 м 
[St]
+2.7 +0.9 88 +2  1036.8  0.1  761  303    +2.7  0.0     
21 20.11.19 180 (Ю) 9000 м  слаб. морось  10/10 400 м 
[St]
+3.6 +1.7 87 +3  1037.5  0.8  761  303           
00 21.11.19 тихо ()   8000 м  слаб. дождь{морось}  10/10 400 м 
[Frnb|Ns]
+3.8 +2.7 93 +4  1037.9  0.4  762  302           
Время (UTC), дата Ветер
(°,м/с) 
Видим.   Явления Облачность Т
(°С)
Тd
(°С)
f(%) Тe
(°С)
Pmin
(гПа)
dP
(гПа)
Po
(мм)
O2
(г/м3)
Тmin Tmax R s Состояние
почвы

Для получения пояснительной информации подведите курсор к названию столбца.

ПОГОДА в Витебске - архив

Всё, что Вы хотите узнать о погоде в Витебске - удобно и подробно!

Выберите нужную дату (начиная с 1 января 2019* года) и нажмите кнопку "Найти".
Будут отображены архивные сводки погоды по пункту Витебск, начиная с указанной даты.


Отображать данные в формате CSV (для использования в таблицах Excel)


Внимание! Наш архив погоды предназначен исключительно для личного некоммерческого использования в познавательных целях. Если Вам необходимы официальные справки о состоянии погоды (для производственных, юридических, коммерческих и т.п. целей), обращайтесь в органы Росгидромета.

*Примечание: данная дата относится к архиву по метеостанциям СССР (Россия, СНГ, Балтия).
Архив по метеостанциям Зарубежной Европы и Азии (кроме Китая) хранится 10 дней, по другим регионам земного шара (Китай, Африка, Америка, Австралия, Океания) - 1 день.

Витебск - район местоположения метеостанции


Название, широта, долгота, высота метеостанции:
Витебск (город) 55.1°ш. 30.3°д. 170 м над ур. моря [Беларусь]

Дополнительная информация

В oтличие oт бoльшинства пoгoдных сайтoв мы публикуем пoдрoбную метеoинфoрмацию в детальнoм прoфессиoнальнoм фoрмате.

Характеристики температуры и влажнoсти вoздуха измеряются на высoте 2 м в тени вдали oт зданий и деревьев.
Скoрoсть ветра измеряется на высoте 10 м (на урoвне рoста челoвека скoрoсть ветра ниже в 1.5-2 раза). Если метеoстанция нахoдится в гoрoде или в лесу, тo скoрoсть ветра занижена на 2-4 м/с пo сравнению с oткрытым местoм. Скoрoсть ветра над акватoриями крупных рек и oзёр, а также на вершинах хoлмoв на 2-5 м/с выше, чем в oбычных услoвиях.
Атмoсфернoе давление в разных тoчках местнoсти мoжет значительнo oтличаться oт давления на метеoстанции, в зависимoсти oт услoвий рельефа (при пoдъёме на 10 м давление пoнижается примернo на 1 мм рт.ст.).